Regional Weather Roundup
Issued by NWS

Home | Current Version | Previous Version | Graphics & Text | Print | Product List | Glossary On
Versions: 1 2 3 4 5 6 7 8 9 10 11 12 13 14 15 16 17 18 19 20 21 22 23 24 25 26 27 28 29 30 31 32 33 34 35 36 37 38 39 40 41 42 43 44 45 46 47 48 49 50
000
ASUS45 KCYS 171410
RWRWY

WYOMING REGIONAL WEATHER ROUNDUP
NATIONAL WEATHER SERVICE CHEYENNE WY
800 AM MDT WED SEP 17 2014

NOTE:  "FAIR" INDICATES FEW OR NO CLOUDS BELOW 12,000 FEET
WITH NO SIGNIFICANT WEATHER AND/OR OBSTRUCTIONS TO VISIBILITY.

WYZ001-171500-
YELLOWSTONE NATIONAL PARK

CITY           SKY/WX    TMP DP  RH WIND       PRES   REMARKS
LK YELLOWSTONE   N/A     36  33  89 CALM      30.25S
W YELLOWSTONE  NOT AVBL

$$
WYZ002>013-054>058-071-098>099-171500-
NORTHERN WYOMING

CITY           SKY/WX    TMP DP  RH WIND       PRES   REMARKS
JACKSON        MOCLDY    43  39  87 CALM      30.20
CODY           SUNNY     55  43  62 SW9       30.05S
GREYBULL       SUNNY     55  46  71 SW6       29.99R
WORLAND        SUNNY     54  46  74 CALM      30.01R
SHERIDAN       PTSUNNY   60  49  66 SW5       29.98R
BUFFALO        MOSUNNY   61  44  53 S5        30.04S
GILLETTE       PTSUNNY   66  42  41 SW10      29.98F
HULETT         CLOUDY    61  41  48 MISG      30.01
NEWCASTLE      FAIR      55  37  50 N7        30.02

$$
WYZ014>020-022>026-101>103-171500-
CENTRAL WYOMING

CITY           SKY/WX    TMP DP  RH WIND       PRES   REMARKS
BIG PINEY      MOCLDY    44  36  73 NW3       30.23R
PINEDALE       CLOUDY    45  37  76 S3        30.23R
DUBOIS         FAIR      43  37  81 W6        30.19R
LANDER         PTSUNNY   55  41  59 N8G30     30.11R
RIVERTON       PTSUNNY   60  42  51 NW17      30.12R
CASPER         PTSUNNY   58  39  49 MISG      30.07F
DOUGLAS        MOSUNNY   56  40  55 E7        30.06F

$$
WYZ021-027>030-104>119-171500-
SOUTHERN WYOMING

CITY           SKY/WX    TMP DP  RH WIND       PRES   REMARKS
EVANSTON       PTCLDY    58  37  45 S7        30.19R
KEMMERER       MOSUNNY   46  37  71 N8        30.22R
FORT BRIDGER   CLOUDY    60  39  46 S3        30.21R
ROCK SPRINGS   SUNNY     53  36  52 E3        30.18R
DIXON          FAIR      50  41  72 SE7       30.23S
RAWLINS        SUNNY     56  38  50 CALM      30.20R
SARATOGA       FAIR      54  36  50 SE10      30.23R
LARAMIE        SUNNY     51  35  54 SE6       30.23R
CHEYENNE       SUNNY     57  38  48 N3        30.14R
TORRINGTON     MOSUNNY   55  46  71 W6        30.01R
PINE BLUFFS    FAIR      52  41  66 CALM      30.08S

$$


USA.gov is the U.S. government's official web portal to all federal, state and local government web resources and services.